RH
10 10 10 8 8 9 10 10 12 9 8 11 11 10 17 17 18 20 23 26 29 32 33 34 33 31 32 34 36 36 40 41 33 30 35 44 59 31 31 31 38 39 40 40
10 13 8 8 10 10 10 10 10 8 7 10 9 17 18 21 24 23 23 26 30 34 35 36 36 35 37 36 36 36 36 36 34 34 50 69 41 37 34 31 33 33 39 40
11 9 9 10 9 11 10 11 10 10 8 9 10 17 22 23 23 25 26 27 29 34 38 39 39 39 37 37 36 35 36 40 40 47 49 48 43 38 27 25 24 30 35 39
9 7 10 10 9 8 10 7 9 10 10 10 12 18 18 20 25 28 31 31 32 34 36 37 38 38 36 36 37 36 38 41 43 51 50 42 34 31 29 26 26 28 32 38
9 8 10 10 8 7 9 10 10 10 11 11 10 10 17 19 25 31 33 34 34 35 36 38 36 34 32 35 38 43 43 41 43 48 45 40 36 28 26 29 34 32 32 34
8 7 8 8 7 8 8 10 10 11 12 14 10 9 28 28 33 31 33 34 35 36 36 35 34 33 32 33 42 44 41 43 44 44 44 40 42 39 34 35 31 30 29 30
9 8 7 8 9 8 10 13 16 16 17 16 11 11 31 33 34 34 36 38 39 37 37 36 34 32 36 43 44 39 44 46 44 44 37 38 37 36 34 34 32 36 32 33
10 13 9 9 10 11 11 12 16 22 17 15 12 22 38 35 34 35 37 39 38 38 38 34 33 35 38 43 41 43 43 44 42 37 36 35 36 31 30 34 36 33 35 35
11 12 9 11 11 10 12 13 13 17 16 17 16 32 28 27 33 37 38 38 39 37 36 34 35 38 40 40 44 52 51 45 35 34 34 35 36 38 37 40 40 37 41 37
14 16 11 12 11 11 13 11 17 18 23 24 17 23 33 33 35 37 41 41 40 36 35 36 36 39 37 41 55 68 51 36 34 33 34 33 37 36 38 39 42 43 44 44
14 15 16 12 15 14 12 14 16 15 16 20 20 36 33 36 38 41 42 41 40 38 37 37 38 38 39 50 64 57 41 36 35 34 35 39 39 38 38 38 39 41 44 43
19 19 17 16 14 12 14 16 15 21 21 21 21 42 34 37 37 38 40 41 40 38 37 37 38 39 43 57 66 49 43 37 35 32 34 38 38 36 37 36 37 40 40 40
18 20 20 20 18 15 18 15 15 16 19 19 26 42 32 34 37 38 41 41 40 39 38 39 38 38 44 60 57 47 42 36 32 28 31 36 38 35 34 34 35 35 36 37
42 22 23 25 24 15 20 15 12 14 20 20 23 37 34 35 36 40 41 41 40 40 40 39 40 41 43 65 66 46 42 34 31 28 29 35 35 31 30 31 33 35 35 35
23 27 21 17 16 16 15 14 14 17 17 24 24 28 28 33 36 39 40 40 40 39 40 40 42 42 64 85 72 43 37 32 30 28 28 30 29 27 30 32 32 34 35 33
22 31 24 24 17 16 19 17 18 19 20 20 20 32 28 30 32 36 39 39 40 40 39 40 41 60 83 93 59 47 32 31 28 28 24 23 24 24 30 31 31 33 34 32
25 29 28 27 19 20 31 25 22 23 22 21 25 27 25 30 32 34 36 37 39 40 39 41 48 78 90 85 48 40 30 28 27 24 18 21 24 24 29 27 27 31 34 34
26 26 23 30 26 71 32 22 22 26 24 21 21 23 25 30 33 33 33 37 40 39 40 54 72 86 88 63 44 31 26 25 25 19 21 23 26 26 28 30 31 32 31 33
20 24 35 47 38 27 26 25 25 28 28 22 23 26 28 31 36 42 38 37 40 42 50 65 75 86 64 43 31 29 27 23 20 24 26 26 28 28 31 35 34 32 31 33
19 26 28 53 50 40 29 23 24 24 36 24 25 30 31 32 41 51 42 46 50 56 68 76 79 62 43 34 30 31 28 24 24 27 30 29 32 32 32 36 33 31 31 32
28 27 32 38 45 37 26 24 24 41 45 30 27 30 34 41 44 45 47 49 51 59 73 73 57 43 34 31 31 32 28 31 29 29 30 32 33 33 31 33 30 29 30 32
28 36 35 29 40 70 27 25 34 41 36 32 34 40 48 47 46 49 51 54 57 65 66 49 40 34 31 30 29 27 31 31 28 31 33 37 36 29 25 31 30 29 30 32
31 30 32 40 46 37 30 36 31 30 35 36 41 43 44 46 49 52 52 50 53 52 42 34 32 33 31 30 27 32 34 31 34 38 51 37 31 28 27 30 30 28 29 31
35 30 38 39 41 36 34 31 30 31 36 36 37 39 41 48 49 48 46 46 43 39 35 31 32 33 36 31 29 39 63 86 87 72 34 29 31 32 28 26 33 31 37 38
32 32 40 46 39 37 32 34 36 36 35 37 37 39 44 47 47 45 46 42 37 36 34 32 34 41 53 41 45 42 40 35 26 25 26 29 28 29 28 29 39 42 51 54
31 34 42 42 41 39 42 38 36 38 38 38 41 44 44 44 44 42 41 38 37 37 34 36 42 57 91 50 63 38 31 26 28 25 25 32 29 29 29 31 34 67 67 64
Wind_Speed
18 14 16 18 13 7 12 14 12 15 13 1 16 6 20 15 14 12 13 13 11 12 13 11 12 11 12 11 10 9 9 6 2 5 7 6 4 3 3 5 5 8 8 10
12 13 18 3 7 7 12 15 16 16 8 1 15 18 21 18 18 14 14 13 14 12 12 13 12 12 10 10 10 9 9 10 11 7 6 3 5 2 3 2 2 3 8 9
14 4 8 2 9 11 14 15 13 14 6 11 14 13 18 19 19 16 16 14 11 11 12 12 11 11 11 10 9 11 12 10 9 6 1 3 7 8 4 7 6 8 6 8
13 12 4 8 14 12 13 7 5 12 14 11 6 2 18 18 19 16 14 13 11 11 11 11 12 10 11 11 11 12 10 10 8 6 3 6 6 6 5 6 7 7 6 6
14 11 10 14 17 8 12 5 9 13 13 15 14 11 12 19 15 13 13 13 10 10 11 11 11 11 12 11 9 10 10 10 7 5 7 7 7 7 7 6 8 6 6 6
13 2 6 10 7 6 11 9 14 13 13 13 17 14 13 10 11 10 12 11 10 9 10 12 12 11 10 10 10 9 10 9 6 6 7 9 9 9 7 8 7 7 7 7
12 11 9 5 10 11 11 13 10 12 12 11 8 2 11 11 10 10 10 10 8 8 10 10 11 10 9 10 8 9 9 7 6 5 7 8 9 7 9 9 8 10 8 7
9 12 7 4 9 11 11 14 10 11 9 8 7 6 9 12 11 10 9 8 8 8 9 9 10 10 9 8 9 8 7 6 4 7 8 7 9 7 7 9 8 8 8 9
1 5 6 4 4 7 3 8 6 9 8 8 5 10 13 11 11 8 7 7 7 9 9 10 10 9 8 9 8 7 5 2 7 8 7 7 8 9 9 10 9 8 10 10
5 3 1 4 5 5 6 8 6 3 6 8 4 9 11 9 8 8 7 7 7 9 9 9 9 8 9 8 7 4 4 6 7 7 7 8 9 9 9 9 10 11 11 12
7 6 9 6 5 10 2 3 4 7 5 9 11 9 7 8 7 8 8 7 7 8 9 8 8 8 9 8 5 4 5 7 8 7 8 8 9 9 9 9 10 11 12 12
5 6 2 9 4 5 6 7 8 7 5 1 8 8 7 8 8 8 8 7 7 8 8 8 8 8 8 5 1 4 5 6 7 7 7 8 9 10 10 10 11 11 12 12
4 2 5 10 9 5 5 5 4 6 7 7 6 8 7 7 8 7 8 7 7 7 8 8 8 8 6 4 4 4 6 6 7 7 7 8 9 10 10 11 11 11 12 12
4 3 6 7 6 6 3 5 8 7 6 5 7 12 8 6 6 6 7 6 7 6 7 7 7 7 5 6 4 4 5 6 7 7 8 9 9 10 10 10 11 11 12 12
3 3 4 8 8 7 5 5 6 7 7 6 8 11 8 6 6 6 6 6 6 6 6 6 5 6 11 4 5 3 5 6 6 7 8 9 9 9 10 11 11 11 12 12
1 4 6 4 4 5 5 4 6 8 6 6 6 11 7 6 7 5 5 4 4 4 4 4 5 12 7 1 5 5 5 6 7 7 8 8 9 10 10 11 11 12 12 12
4 6 5 5 0 1 5 3 5 6 7 8 6 8 3 6 5 5 6 3 3 4 5 6 9 8 4 4 1 4 5 6 7 7 8 9 9 10 11 12 12 13 13 13
6 6 1 4 5 1 6 4 2 7 5 5 7 6 6 9 8 8 7 7 7 6 9 11 7 6 4 7 2 2 5 6 7 7 8 9 10 11 11 12 13 13 13 13
4 5 3 3 6 3 7 6 5 4 8 4 5 5 6 8 10 10 9 10 10 12 12 8 7 5 6 2 4 5 5 6 7 8 9 9 10 11 12 13 13 13 13 13
5 6 4 2 2 4 11 10 3 2 6 5 4 3 3 5 6 8 9 13 13 13 9 8 6 6 4 5 5 5 6 6 8 8 8 9 10 11 12 13 13 12 12 13
8 7 7 7 4 4 8 6 5 6 7 5 5 5 4 6 8 13 13 12 12 11 9 7 7 4 7 6 5 6 6 7 7 7 8 9 10 11 11 12 12 12 13 13
6 5 4 5 3 2 9 7 4 8 8 6 7 9 12 14 14 14 12 11 11 11 8 6 6 7 6 5 5 6 7 5 6 8 10 9 9 9 9 12 12 12 14 13
5 1 2 6 6 10 7 12 8 8 8 8 9 11 13 14 14 12 10 11 11 10 7 6 7 7 6 7 6 8 5 6 8 7 6 8 8 10 10 10 12 11 13 12
3 2 5 7 8 11 12 10 10 10 10 11 12 12 12 14 13 12 10 10 9 8 7 7 7 7 7 7 8 7 3 1 4 6 6 8 8 9 9 7 8 9 10 10
3 7 8 11 12 11 10 11 12 13 13 13 12 12 13 13 12 10 10 9 8 8 7 6 7 9 9 8 7 6 4 5 6 7 8 9 7 9 9 8 6 7 7 5
5 6 7 7 17 5 13 12 13 13 13 12 14 14 12 12 11 11 10 9 8 8 7 8 10 9 3 5 4 5 5 7 8 7 7 6 7 8 8 8 6 5 1 4
Wind_Direction
198 225 235 242 247 301 327 302 264 282 300 166 279 317 77 70 60 99 108 112 115 117 112 133 108 115 110 109 112 111 97 93 91 79 39 27 285 341 342 19 22 349 356 354
220 234 256 343 360 297 281 274 278 285 281 246 280 94 78 67 64 46 91 97 103 113 123 115 123 115 120 112 98 102 86 57 44 55 47 275 338 284 319 302 320 12 359 347
240 277 32 60 249 238 252 265 277 289 299 228 252 127 107 83 69 69 70 82 102 116 119 126 124 124 111 107 98 80 74 76 64 66 342 282 232 240 18 346 355 357 1 342
238 256 188 241 253 271 282 313 322 274 267 271 122 246 142 104 83 61 68 73 89 104 119 126 124 126 104 91 80 83 82 71 62 29 285 352 350 359 358 341 3 321 343 338
228 230 239 243 251 266 269 346 284 282 268 274 279 258 103 59 56 64 66 74 83 101 118 122 127 112 104 103 100 88 75 69 50 27 15 2 3 354 354 355 330 336 335 339
277 179 257 256 274 238 272 265 245 252 255 256 252 262 63 35 27 67 74 75 84 98 114 113 107 117 115 105 85 83 74 64 45 26 19 18 11 360 346 347 335 346 339 341
204 218 216 264 257 221 242 256 257 244 234 249 54 285 58 65 56 48 68 81 90 109 114 124 136 131 113 98 98 85 71 60 39 18 24 20 7 350 339 350 347 333 342 340
225 173 181 131 264 307 219 247 278 299 303 327 172 88 83 83 79 75 78 86 111 119 128 140 132 115 116 102 89 80 65 50 5 29 22 18 5 -0 352 354 346 337 337 333
213 129 105 61 303 269 209 244 351 297 246 270 130 101 137 106 97 86 87 101 109 124 138 131 122 113 117 97 80 61 48 4 33 25 13 12 8 2 355 345 343 343 335 331
14 224 318 94 252 152 309 4 257 244 274 293 121 132 72 61 73 102 102 103 113 126 131 130 121 128 100 91 77 48 286 32 32 19 16 12 1 359 350 342 346 342 339 335
320 267 130 206 4 355 222 180 321 310 307 304 303 87 41 60 61 87 95 105 124 135 137 139 126 119 107 88 61 254 30 33 23 16 12 4 0 351 351 352 349 347 337 340
51 315 281 62 93 354 41 10 320 311 329 160 301 87 59 70 77 92 103 108 118 136 144 136 138 121 108 113 318 50 44 25 20 12 6 7 357 356 354 354 349 348 346 342
18 220 217 186 180 145 31 7 313 288 274 284 317 97 96 97 91 91 111 117 132 142 141 143 140 129 138 107 31 15 34 20 9 6 2 12 3 358 356 351 349 351 347 343
280 26 330 14 57 353 60 3 341 318 286 29 44 128 105 89 96 107 110 127 137 155 153 156 156 121 178 67 5 352 27 17 3 5 4 13 4 357 357 353 351 350 344 344
349 82 54 58 59 54 45 26 35 52 16 5 91 76 72 58 79 94 113 125 135 150 170 157 149 130 80 59 296 3 22 12 4 7 9 11 3 359 358 353 349 348 342 343
24 117 117 97 119 96 90 78 78 54 58 75 119 110 81 89 110 113 115 131 142 146 149 140 109 90 95 226 277 11 20 15 6 13 13 10 2 359 358 349 347 346 343 345
141 158 199 152 58 36 173 52 73 90 45 351 53 70 146 129 79 69 112 107 99 115 126 117 93 103 129 227 314 345 34 16 10 16 15 11 2 358 354 350 352 349 344 346
165 179 216 129 183 273 83 125 73 92 79 79 90 71 48 76 80 71 42 85 92 103 103 92 109 114 158 229 51 49 24 29 17 22 13 10 0 356 353 351 352 349 346 347
222 175 143 158 197 105 163 175 170 221 113 58 85 108 105 120 127 78 59 72 78 84 91 115 116 137 202 111 68 41 25 25 33 18 14 3 357 351 351 351 351 348 345 346
188 261 212 201 167 205 108 124 106 237 158 90 51 84 142 180 232 96 99 84 88 91 105 113 130 195 103 75 56 31 27 31 26 14 2 356 355 354 348 348 352 348 350 347
178 190 191 157 204 90 100 125 169 239 80 83 63 70 77 64 59 105 96 97 92 103 115 135 177 117 81 74 40 45 36 34 21 1 353 360 354 347 350 349 356 354 354 352
167 160 204 181 155 154 142 150 298 94 107 98 87 83 99 109 113 105 110 108 109 120 144 174 116 93 80 61 33 47 50 35 12 0 2 349 350 349 357 358 359 1 360 356
184 356 151 13 71 109 84 84 100 103 112 105 105 112 122 124 120 118 114 111 122 146 133 106 100 96 75 47 25 65 48 22 21 353 326 336 3 344 8 10 5 4 6 360
134 197 120 147 128 122 112 102 98 97 105 107 117 122 128 125 121 121 111 122 118 113 106 98 109 94 74 61 63 70 49 261 257 269 345 2 6 343 6 23 14 10 13 1
27 172 135 102 128 127 127 108 108 107 108 113 116 121 124 124 127 122 121 122 116 108 108 99 87 71 48 56 49 30 6 324 347 7 10 10 4 3 4 24 21 21 31 12
202 154 187 193 161 165 141 129 127 126 122 120 122 122 122 126 124 121 123 118 115 110 106 94 92 92 85 69 26 345 9 4 356 13 9 31 357 6 7 7 14 112 132 201